GAOFEN-2

Last updated on Wed Sep 17 2025 00:02:31 GMT+0000 (Coordinated Universal Time)

1 40118U 14049A 25259.62138894 .00000970 00000+0 13439-3 0 9994 2 40118 98.0516 318.5914 0007800 60.3854 299.8134 14.80290387598759
UTC large
Height (km)
Speed (km/s)
/
Latitude / Longitude
Inclination (degrees)
Orbital Period (minutes)
Azimuth
Elevation
Range (km)
Doppler Factor

Next 0 passes for location: London (51.5072 / 0.1276)

Sorry there are no passes over London.